Home > Weather > Saarbrücken > Past weeks

Flag for Germany Weather for the Past 2 Weeks in Saarbrücken, Saarland, Germany

Now
36 °F

Drizzle. Fog.


Feels Like: 30 °F
Forecast: 35 / 44 °F
Wind: 7 mph from Southwest

Location: Saarbruecken / Ensheim

Current Time: Feb 13, 2016 at 8:47:55 AM

Latest Report: Feb 13, 2016 at 8:20 AM


Visibility: 3 mi

Pressure: 29.30 "Hg

Humidity: 93%

Dew point: 34 °F

Location of SaarbrückenLocation

Historic Weather in Saarbrücken — Graph

°F

Saarbrücken Temperature Yesterday

Maximum temperature yesterday: 39 °F (at 2:20 PM)
Minimum temperature yesterday: 32 °F (at 1:20 AM)
Average temperature yesterday: 36 °F

High & Low Weather Summary for the Past Weeks

 TemperatureHumidityPressure
High54 °F (Feb 1, 1:20 AM)100% (Jan 29, 8:50 AM)30.42 "Hg (Jan 29, 8:50 AM)
Low32 °F (Feb 12, 1:20 AM)57% (Jan 29, 4:20 PM)29.09 "Hg (Feb 9, 3:20 PM)
Average42 °F86%29.88 "Hg
* Reported Jan 29 7:20 AM — Feb 13 7:50 AM, Saarbrücken, Weather by CustomWeather, © 2016

Note: Actual official high and low records may vary slightly from our data, if they occured in-between our weather recording intervals... More about our weather records

Advertising

Saarbrücken Weather History for the Previous 24 Hours

 ConditionsComfort  
Time TempWeatherWind HumidityBarometerVisibility
7:50 AM
Sat, Feb 13
36 °FFog.9 mph93%29.33 "Hg3 mi
7:20 AM36 °FFog.8 mph93%29.30 "Hg2 mi
6:50 AM36 °FDrizzle. Fog.6 mph100%29.33 "Hg2 mi
6:20 AM36 °FDrizzle. Fog.7 mph100%29.33 "Hg2 mi
5:50 AM36 °FDrizzle. Fog.7 mph100%29.33 "Hg1 mi
5:20 AM36 °FDrizzle. Fog.3 mph93%29.33 "Hg1 mi
4:50 AM36 °FFog.3 mph93%29.33 "Hg1 mi
4:20 AM36 °FFog.3 mph93%29.33 "Hg1 mi
3:20 AM36 °FLow clouds.5 mph93%29.33 "Hg1 mi
2:50 AM36 °FPassing clouds.3 mph93%29.33 "Hg1 mi
2:20 AM36 °FLow clouds.3 mph93%29.33 "Hg1 mi
1:50 AM36 °FPassing clouds.3 mph93%29.33 "HgN/A
1:20 AM36 °FOvercast.6 mph93%29.33 "HgN/A
12:50 AM36 °FOvercast.5 mph93%29.33 "HgN/A
12:20 AM36 °FOvercast.7 mph93%29.30 "HgN/A
11:50 PM
Fri, Feb 12
36 °FPartly cloudy.7 mph93%29.30 "HgN/A
11:20 PM36 °FPassing clouds.9 mph93%29.30 "HgN/A
10:20 PM36 °FLight rain. Passing clouds.8 mph93%29.30 "HgN/A
9:50 PM36 °FLight rain. Partly cloudy.8 mph93%29.33 "HgN/A
9:20 PM36 °FLight rain. Partly cloudy.8 mph93%29.33 "HgN/A
8:50 PM37 °FLight rain. Partly cloudy.8 mph81%29.33 "HgN/A
8:20 PM37 °FLight rain. Partly cloudy.9 mph81%29.33 "HgN/A
7:50 PM39 °FLight rain. Partly cloudy.9 mph75%29.33 "HgN/A
7:20 PM39 °FLight rain. Partly cloudy.7 mph75%29.33 "HgN/A
6:50 PM39 °FPartly cloudy.7 mph75%29.33 "HgN/A
6:20 PM39 °FPassing clouds.7 mph75%29.33 "HgN/A
5:50 PM39 °FPassing clouds.8 mph75%29.33 "HgN/A
5:20 PM39 °FPartly sunny.8 mph75%29.33 "HgN/A
4:50 PM39 °FBroken clouds.13 mph75%29.33 "HgN/A
4:20 PM39 °FBroken clouds.14 mph75%29.33 "HgN/A
3:50 PM39 °FPartly sunny.14 mph75%29.36 "HgN/A
3:20 PM39 °FPartly sunny.13 mph70%29.36 "HgN/A
2:50 PM39 °FPartly sunny.12 mph75%29.39 "HgN/A
2:20 PM39 °FBroken clouds.10 mph75%29.39 "HgN/A
1:50 PM37 °FBroken clouds.10 mph75%29.42 "HgN/A
1:20 PM37 °FScattered clouds.12 mph75%29.45 "HgN/A
12:50 PM37 °FPassing clouds.12 mph81%29.47 "HgN/A
12:20 PM37 °FPassing clouds.13 mph75%29.47 "HgN/A
11:50 AM37 °FPassing clouds.12 mph81%29.50 "HgN/A
11:20 AM37 °FScattered clouds.10 mph75%29.53 "HgN/A
10:50 AM37 °FScattered clouds.9 mph81%29.53 "HgN/A
10:20 AM36 °FScattered clouds.7 mph87%29.53 "HgN/A
9:50 AM36 °FPartly sunny.6 mph87%29.56 "HgN/A
9:20 AM34 °FBroken clouds.6 mph93%29.56 "HgN/A
8:50 AM32 °FPartly sunny.6 mph100%29.59 "HgN/A
8:20 AM32 °FPartly sunny.5 mph93%29.59 "Hg6 mi
Weather by CustomWeather, © 2016

See weather overviewHow to use our weather pages